Flag for United Arab Emirates Weather past 2 weeks in Dubai, Dubai, United Arab Emirates

Now
72 °F

Clear.


Feels Like: 76 °F
Forecast: 66 / 79 °F
Wind: 6 mph from West

Location: Dubai International Airport

Current Time: Jan 28, 2015 at 8:23:06 PM

Latest Report: Jan 28, 2015 at 8:00 PM


Visibility: 10 mi

Pressure: 30.07 "Hg

Humidity: 61%

Dew point: 57 °F

Location of DubaiLocation

Historic Weather in Dubai — Graph

°F

Dubai temperature yesterday

Maximum temperature yesterday: 79 °F (at 2:00 PM)
Minimum temperature yesterday: 63 °F (at 7:00 AM)
Average temperature yesterday: 70 °F

Past Weeks' High & Low Weather Summary

 TemperatureHumidityPressure
High79 °F (Jan 18, 1:00 PM)94% (Jan 19, 2:00 PM)30.27 "Hg (Jan 19, 2:00 PM)
Low57 °F (Jan 20, 2:00 AM)29% (Jan 16, 12:00 PM)29.92 "Hg (Jan 19, 2:00 PM)
Average68 °F58%30.11 "Hg
* Reported Jan 13 7:00 PM — Jan 28 7:00 PM, Dubai, Weather by CustomWeather, © 2014

Note: Actual official high and low records may vary slightly from our data, if they occured in-between our weather recording intervals... More about our weather records

Advertising

Dubai weather history for previous 24 hours

 ConditionsComfort  
Time TempWeatherWind HumidityBarometerVisibility
7:00 PM
Jan 28
73 °FClear.7 mph53%30.04 "Hg10 mi
6:00 PM73 °FClear.8 mph44%30.04 "Hg10 mi
5:00 PM75 °FSunny.8 mph36%30.01 "Hg10 mi
4:00 PM77 °FPassing clouds.10 mph32%30.01 "HgN/A
3:00 PM79 °FPassing clouds.10 mph30%30.04 "HgN/A
2:00 PM79 °FPassing clouds.10 mph30%30.04 "HgN/A
1:00 PM79 °FPassing clouds.7 mph30%30.07 "HgN/A
12:00 PM75 °FSunny.5 mph47%30.09 "Hg10 mi
11:00 AM72 °FClear.7 mph65%30.12 "Hg5 mi
10:00 AM70 °FClear.6 mph73%30.12 "Hg4 mi
9:00 AM66 °FHaze.5 mph78%30.12 "Hg2 mi
8:00 AM64 °FHaze.7 mph83%30.09 "Hg2 mi
7:00 AM63 °FHaze.3 mph83%30.09 "Hg2 mi
6:00 AM63 °FHaze.2 mph88%30.07 "Hg3 mi
5:00 AM63 °FClear.5 mph83%30.07 "Hg4 mi
4:00 AM66 °FClear.3 mph78%30.07 "Hg4 mi
3:00 AM64 °FClear.2 mph83%30.09 "Hg5 mi
2:00 AM66 °FClear.6 mph78%30.09 "Hg10 mi
1:00 AM68 °FClear.5 mph78%30.09 "Hg10 mi
12:00 AM70 °FPassing clouds.5 mph69%30.09 "HgN/A
11:00 PM
Jan 27
70 °FPassing clouds.7 mph69%30.12 "HgN/A
10:00 PM70 °FPassing clouds.6 mph69%30.12 "HgN/A
9:00 PM70 °FClear.7 mph69%30.12 "Hg10 mi
8:00 PM72 °FPassing clouds.8 mph61%30.12 "HgN/A
Weather by CustomWeather, © 2014

See weather overviewHow to use our weather pages